📊 Raw Sensor Data
Showing records 51776 to 51800 of 85,153 total
| ID | Distance (ft) | Battery V | Battery A | Int Temp (°F) | Int Humid (%) | Ext Temp (°F) | Solar V | RSSI | SNR | Time Stamp |
|---|---|---|---|---|---|---|---|---|---|---|
| 33390 | 14.7 | 3.91 | 0 | 62 | 35 | 58 | 5.10 | -71 | 7 | 02/25/2025 11:00 AM |
| 33389 | 14.7 | 4.09 | 5 | 61 | 35 | 58 | 5.10 | -72 | 7 | 02/25/2025 10:45 AM |
| 33388 | 14.7 | 3.92 | 5 | 59 | 35 | 57 | 5.10 | -71 | 8 | 02/25/2025 10:30 AM |
| 33387 | 14.7 | 3.91 | 0 | 58 | 35 | 56 | 5.10 | -70 | 8 | 02/25/2025 10:15 AM |
| 33386 | 14.7 | 3.92 | 0 | 57 | 35 | 56 | 5.10 | -72 | 8 | 02/25/2025 10:00 AM |
| 33385 | 14.7 | 4.08 | 0 | 55 | 35 | 56 | 5.10 | -72 | 7 | 02/25/2025 09:45 AM |
| 33384 | 14.7 | 4.20 | 150 | 54 | 35 | 55 | 5.10 | -73 | 8 | 02/25/2025 09:30 AM |
| 33383 | 14.7 | 4.20 | 157 | 53 | 35 | 54 | 5.10 | -71 | 7 | 02/25/2025 09:15 AM |
| 33382 | 14.7 | 4.20 | 149 | 52 | 35 | 53 | 5.10 | -72 | 8 | 02/25/2025 09:00 AM |
| 33381 | 14.6 | 4.20 | 155 | 51 | 35 | 53 | 5.10 | -83 | 7 | 02/25/2025 08:45 AM |
| 33380 | 14.6 | 4.20 | 166 | 48 | 35 | 50 | 5.00 | -77 | 6 | 02/25/2025 08:15 AM |
| 33379 | 14.6 | 4.20 | 184 | 45 | 36 | 48 | 5.00 | -77 | 5 | 02/25/2025 08:00 AM |
| 33378 | 14.6 | 3.90 | 34 | 44 | 37 | 46 | 4.50 | -77 | 7 | 02/25/2025 07:45 AM |
| 33377 | 14.5 | 3.93 | 57 | 42 | 37 | 44 | 4.50 | -77 | 8 | 02/25/2025 07:30 AM |
| 33376 | 14.6 | 3.87 | 9 | 42 | 37 | 40 | 4.50 | -78 | 7 | 02/25/2025 07:15 AM |
| 33375 | 14.5 | 3.80 | -17 | 42 | 37 | 43 | 4.50 | -78 | 7 | 02/25/2025 07:00 AM |
| 33374 | 14.5 | 3.74 | -10 | 42 | 37 | 43 | 4.20 | -78 | 8 | 02/25/2025 06:45 AM |
| 33373 | 14.5 | 3.75 | -5 | 41 | 38 | 44 | 0.80 | -79 | 8 | 02/25/2025 06:30 AM |
| 33372 | 14.5 | 3.83 | -5 | 41 | 38 | 43 | 0.00 | -80 | 8 | 02/25/2025 06:15 AM |
| 33371 | 14.5 | 3.77 | -5 | 41 | 38 | 43 | 0.00 | -80 | 6 | 02/25/2025 06:00 AM |
| 33370 | 14.5 | 3.78 | -5 | 41 | 38 | 42 | 0.10 | -80 | 7 | 02/25/2025 05:45 AM |
| 33369 | 14.5 | 3.78 | -5 | 42 | 38 | 43 | 0.00 | -80 | 7 | 02/25/2025 05:30 AM |
| 33368 | 14.5 | 3.84 | -5 | 44 | 37 | 45 | 0.10 | -81 | 8 | 02/25/2025 05:15 AM |
| 33367 | 14.5 | 3.78 | -5 | 43 | 37 | 46 | 0.10 | -81 | 7 | 02/25/2025 05:00 AM |
| 33366 | 14.5 | 3.78 | -5 | 41 | 38 | 47 | 0.00 | -85 | 8 | 02/25/2025 04:45 AM |